Location: Unspecified
(0.0000°N, 0.0000°E)
Time: 09:45:16
(UTC+00:00)

Tiangong 1 - Pass Details

Date: 08 January 2018
Orbit: 265 x 288 km, 42.8° (Epoch: 15 January)

Event Time Altitude Azimuth Distance (km) Brightness Sun altitude
Exits shadow 05:30:22 12° 309° (NW) 988 2.5 -8.4°
Maximum altitude 05:32:32 70° 226° (SW) 290 0.3 -7.9°
Drops below altitude 10° 05:34:57 10° 141° (SE) 1,085 4.5 -7.3°
Sets 05:36:53 0° 138° (SE) 1,905 5.9 -6.9°
